Flag for Puerto Rico Weather past 2 weeks in San Juan, Puerto Rico

Now
80 °F

Light rain. Partly cloudy.


Feels Like: 87 °F
Forecast: 80 / 84 °F
Wind: 8 mph from East

Location: Luis Munoz Marin

Current Time: Aug 22, 2014 at 2:43:28 AM

Latest Report: Aug 22, 2014 at 1:56 AM


Visibility: 10 mi

Pressure: 29.88 "Hg

Humidity: 96%

Dew point: 79 °F

Location of San JuanLocation

Historic Weather in San Juan — Graph

°F

San Juan temperature yesterday

Maximum temperature yesterday: 87 °F (at 11:56 AM)
Minimum temperature yesterday: 79 °F (at 7:03 PM)
Average temperature yesterday: 83 °F

Past Weeks' High & Low Weather Summary

 TemperatureHumidityPressure
High89 °F (Aug 9, 1:56 PM)100% (Aug 10, 11:56 PM)30.09 "Hg (Aug 10, 11:56 PM)
Low76 °F (Aug 13, 4:56 AM)57% (Aug 9, 1:56 PM)29.89 "Hg (Aug 22, 12:56 AM)
Average82 °F82%30.02 "Hg
* Reported Aug 7 12:56 AM — Aug 22 12:56 AM, San Juan, Weather by CustomWeather, © 2014

Note: Actual official high and low records may vary slightly from our data, if they occured in-between our weather recording intervals... More about our weather records

Advertising

San Juan weather history for previous 24 hours

 ConditionsComfort  
Time TempWeatherWind HumidityBarometerVisibility
12:56 AM
Aug 22
80 °FPartly cloudy.12 mph94%29.89 "Hg10 mi
11:56 PM
Aug 21
80 °FPassing clouds.9 mph96%29.91 "Hg10 mi
10:56 PM83 °FPartly cloudy.13 mph85%29.95 "Hg10 mi
9:56 PM83 °FPassing clouds.13 mph85%29.96 "Hg10 mi
8:56 PM82 °FPassing clouds.8 mph91%29.95 "Hg10 mi
7:56 PM82 °FPartly cloudy.12 mph91%29.94 "Hg10 mi
7:03 PM79 °FLight rain. Fog.14 mph94%29.94 "Hg5 mi
6:56 PM80 °FLight rain. Fog.16 mph90%29.93 "Hg4 mi
5:56 PM83 °FScattered clouds.13 mph85%29.92 "Hg10 mi
4:56 PM86 °FScattered clouds.13 mph77%29.92 "Hg10 mi
3:56 PM86 °FLight rain. Scattered clouds.16 mph77%29.92 "Hg8 mi
2:56 PM87 °FScattered clouds.13 mph75%29.93 "Hg10 mi
1:56 PM86 °FScattered clouds.17 mph77%29.95 "Hg10 mi
12:56 PM84 °FLight rain. Scattered clouds.12 mph88%29.98 "Hg10 mi
11:56 AM87 °FScattered clouds.18 mph72%30.00 "Hg10 mi
10:56 AM84 °FScattered clouds.10 mph85%30.01 "Hg10 mi
9:56 AM86 °FScattered clouds.21 mph72%30.02 "Hg10 mi
8:56 AM85 °FScattered clouds.15 mph75%30.01 "Hg10 mi
7:56 AM85 °FScattered clouds.14 mph77%30.00 "Hg10 mi
6:56 AM83 °FPassing clouds.7 mph82%29.99 "Hg10 mi
5:56 AM82 °FPassing clouds.7 mph82%29.98 "Hg10 mi
4:56 AM82 °FPassing clouds.8 mph82%29.98 "Hg10 mi
3:56 AM83 °FPassing clouds.13 mph82%29.98 "Hg10 mi
2:56 AM83 °FPartly cloudy.9 mph82%29.98 "Hg10 mi
Weather by CustomWeather, © 2014

See weather overviewHow to use our weather pages